Location: Newark
(31.5350°N, 35.0986°E)
Time: 03:20:18
(UTC+00:00)

SR - Pass Details

Date: 26 October 2019
Orbit: 574 x 882 km, 66.7° (Epoch: 14 November)

Event Time Altitude Azimuth Distance (km) Brightness Sun altitude
Rises 16:38:59 0° 170° (S) 2,956 ? -22.5°
Enters shadow 16:39:32 - 168° (SSE) 2,765 ? -22.6°
Reaches altitude 10° 16:41:38 10° 155° (SSE) 2,102 - -23.0°
Maximum altitude 16:45:15 22° 105° (ESE) 1,540 - -23.8°
Drops below altitude 10° 16:49:07 10° 56° (NE) 2,267 - -24.6°
Sets 16:52:05 0° 42° (NE) 3,257 - -25.3°
